Time,TemperatureF,DewpointF,PressureIn,WindDirection,WindDirectionDegrees,WindSpeedMPH,WindSpeedGustMPH,Humidity,HourlyPrecipIn,Conditions,Clouds,dailyrainin,SolarRadiationWatts/m^2,SoftwareType,DateUTC
2013-11-06 00:03:00,57.0,40.0,-100.00,SW,223,2.0,8.0,53,0.00,,,0.01,0.000000,,2013-11-06 05:03:00,
2013-11-06 00:44:00,57.0,40.0,-100.00,WSW,237,2.0,6.0,53,0.00,,,0.01,0.000000,,2013-11-06 05:44:00,
2013-11-06 00:53:00,57.0,40.0,-100.00,WSW,237,2.0,6.0,53,0.00,,,0.01,0.000000,,2013-11-06 05:53:00,
2013-11-06 01:03:00,57.0,40.0,-100.00,WSW,237,2.0,6.0,53,0.00,,,0.01,0.000000,,2013-11-06 06:03:00,
2013-11-06 01:42:00,57.0,41.0,-100.00,WSW,237,3.0,10.0,55,0.00,,,0.01,0.000000,,2013-11-06 06:42:00,
2013-11-06 01:52:00,57.0,41.0,-100.00,WSW,237,3.0,10.0,55,0.00,,,0.01,0.000000,,2013-11-06 06:52:00,
2013-11-06 02:02:00,57.0,41.0,-100.00,WSW,237,3.0,10.0,55,0.00,,,0.01,0.000000,,2013-11-06 07:02:00,
2013-11-06 02:42:00,56.0,42.0,-100.00,SW,233,2.0,9.0,59,0.00,,,0.01,0.000000,,2013-11-06 07:42:00,
2013-11-06 02:52:00,56.0,42.0,-100.00,SW,233,2.0,9.0,59,0.00,,,0.01,0.000000,,2013-11-06 07:52:00,
2013-11-06 03:02:00,56.0,42.0,-100.00,SW,233,2.0,9.0,59,0.00,,,0.01,0.000000,,2013-11-06 08:02:00,
2013-11-06 03:42:00,56.0,43.0,-100.00,WSW,241,3.0,9.0,61,0.00,,,0.00,0.000000,,2013-11-06 08:42:00,
2013-11-06 03:52:00,56.0,43.0,-100.00,WSW,241,3.0,9.0,61,0.00,,,0.00,0.000000,,2013-11-06 08:52:00,
2013-11-06 04:02:00,56.0,43.0,-100.00,WSW,241,3.0,9.0,61,0.00,,,0.00,0.000000,,2013-11-06 09:02:00,
2013-11-06 04:43:00,56.0,43.0,-100.00,WSW,237,3.0,11.0,62,0.00,,,0.00,0.000000,,2013-11-06 09:43:00,
2013-11-06 04:53:00,56.0,43.0,-100.00,WSW,237,3.0,11.0,62,0.00,,,0.00,0.000000,,2013-11-06 09:53:00,
2013-11-06 05:03:00,56.0,43.0,-100.00,WSW,237,3.0,11.0,62,0.00,,,0.00,0.000000,,2013-11-06 10:03:00,
2013-11-06 05:42:00,55.0,43.0,-100.00,WSW,239,3.0,11.0,65,0.00,,,0.00,0.000000,,2013-11-06 10:42:00,
2013-11-06 05:53:00,55.0,43.0,-100.00,WSW,239,3.0,11.0,65,0.00,,,0.00,0.000000,,2013-11-06 10:53:00,
2013-11-06 06:02:00,55.0,43.0,-100.00,WSW,239,3.0,11.0,65,0.00,,,0.00,0.000000,,2013-11-06 11:02:00,
2013-11-06 06:42:00,54.0,43.0,-100.00,WSW,238,3.0,11.0,67,0.00,,,0.00,0.000000,,2013-11-06 11:42:00,
2013-11-06 06:52:00,54.0,43.0,-100.00,WSW,238,3.0,11.0,67,0.00,,,0.00,0.000000,,2013-11-06 11:52:00,
2013-11-06 07:02:00,54.0,43.0,-100.00,WSW,238,3.0,11.0,67,0.00,,,0.00,0.000000,,2013-11-06 12:02:00,
2013-11-06 07:42:00,54.0,42.0,-100.00,WSW,237,2.0,9.0,64,0.00,,,0.00,0.000000,,2013-11-06 12:42:00,
2013-11-06 07:52:00,54.0,42.0,-100.00,WSW,237,2.0,9.0,64,0.00,,,0.00,0.000000,,2013-11-06 12:52:00,
2013-11-06 08:02:00,54.0,42.0,-100.00,WSW,237,2.0,9.0,64,0.00,,,0.00,0.000000,,2013-11-06 13:02:00,
2013-11-06 08:42:00,55.0,42.0,-100.00,WSW,248,3.0,10.0,62,0.00,,,0.00,14.000000,,2013-11-06 13:42:00,
2013-11-06 08:52:00,55.0,42.0,-100.00,WSW,248,3.0,10.0,62,0.00,,,0.00,14.000000,,2013-11-06 13:52:00,
2013-11-06 09:02:00,55.0,42.0,-100.00,WSW,248,3.0,10.0,62,0.00,,,0.00,14.000000,,2013-11-06 14:02:00,
2013-11-06 09:42:00,58.0,45.0,-100.00,WSW,248,5.0,13.0,63,0.00,,,0.00,70.000000,,2013-11-06 14:42:00,
2013-11-06 09:52:00,58.0,45.0,-100.00,WSW,248,5.0,13.0,63,0.00,,,0.00,70.000000,,2013-11-06 14:52:00,
2013-11-06 10:02:00,58.0,45.0,-100.00,WSW,248,5.0,13.0,63,0.00,,,0.00,70.000000,,2013-11-06 15:02:00,
2013-11-06 10:43:00,63.0,50.0,-100.00,WSW,247,5.0,14.0,62,0.00,,,0.00,173.000000,,2013-11-06 15:43:00,
2013-11-06 10:54:00,63.0,50.0,-100.00,WSW,247,5.0,14.0,62,0.00,,,0.00,173.000000,,2013-11-06 15:54:00,
2013-11-06 11:03:00,63.0,50.0,-100.00,WSW,247,5.0,14.0,62,0.00,,,0.00,173.000000,,2013-11-06 16:03:00,
2013-11-06 11:43:00,60.0,54.0,-100.00,WSW,241,4.0,15.0,80,0.01,,,0.01,98.000000,,2013-11-06 16:43:00,
2013-11-06 11:53:00,60.0,54.0,-100.00,WSW,241,4.0,15.0,80,0.01,,,0.01,98.000000,,2013-11-06 16:53:00,
2013-11-06 12:02:00,60.0,54.0,-100.00,WSW,241,4.0,15.0,80,0.01,,,0.01,98.000000,,2013-11-06 17:02:00,
2013-11-06 12:43:00,59.0,56.0,-100.00,WSW,254,3.0,12.0,90,0.02,,,0.03,97.000000,,2013-11-06 17:43:00,
2013-11-06 12:52:00,59.0,56.0,-100.00,WSW,254,3.0,12.0,90,0.02,,,0.03,97.000000,,2013-11-06 17:52:00,
2013-11-06 13:02:00,59.0,56.0,-100.00,WSW,254,3.0,12.0,90,0.02,,,0.03,97.000000,,2013-11-06 18:02:00,
2013-11-06 13:42:00,59.0,58.0,-100.00,WSW,246,3.0,9.0,97,0.08,,,-99.99,103.000000,,2013-11-06 18:42:00,
2013-11-06 13:52:00,59.0,58.0,-100.00,WSW,246,3.0,9.0,97,0.08,,,-99.99,103.000000,,2013-11-06 18:52:00,
2013-11-06 14:01:00,59.0,58.0,-100.00,WSW,246,3.0,9.0,97,0.08,,,-99.99,103.000000,,2013-11-06 19:01:00,
2013-11-06 14:42:00,58.0,57.0,-100.00,WSW,245,4.0,14.0,98,0.03,,,0.14,86.000000,,2013-11-06 19:42:00,
2013-11-06 14:52:00,58.0,57.0,-100.00,WSW,245,4.0,14.0,98,0.03,,,0.14,86.000000,,2013-11-06 19:52:00,
2013-11-06 15:02:00,58.0,57.0,-100.00,WSW,245,4.0,14.0,98,0.03,,,0.14,86.000000,,2013-11-06 20:02:00,
2013-11-06 15:42:00,59.0,59.0,-100.00,WSW,256,4.0,13.0,99,0.03,,,0.17,71.000000,,2013-11-06 20:42:00,
2013-11-06 15:52:00,59.0,59.0,-100.00,WSW,256,4.0,13.0,99,0.03,,,0.17,71.000000,,2013-11-06 20:52:00,
2013-11-06 16:02:00,59.0,59.0,-100.00,WSW,256,4.0,13.0,99,0.03,,,0.17,71.000000,,2013-11-06 21:02:00,
2013-11-06 16:44:00,58.0,58.0,-100.00,WSW,256,4.0,14.0,100,0.03,,,0.20,26.000000,,2013-11-06 21:44:00,
2013-11-06 16:54:00,58.0,58.0,-100.00,WSW,256,4.0,14.0,100,0.03,,,0.20,26.000000,,2013-11-06 21:54:00,
2013-11-06 17:04:00,58.0,58.0,-100.00,WSW,256,4.0,14.0,100,0.03,,,0.20,26.000000,,2013-11-06 22:04:00,
2013-11-06 17:43:00,58.0,58.0,-100.00,WNW,287,3.0,12.0,100,0.03,,,0.23,6.000000,,2013-11-06 22:43:00,
2013-11-06 17:53:00,58.0,58.0,-100.00,WNW,287,3.0,12.0,100,0.03,,,0.23,6.000000,,2013-11-06 22:53:00,
2013-11-06 18:02:00,58.0,58.0,-100.00,WNW,287,3.0,12.0,100,0.03,,,0.23,6.000000,,2013-11-06 23:02:00,
2013-11-06 18:42:00,57.0,57.0,-100.00,WNW,290,5.0,13.0,99,0.02,,,0.25,1.000000,,2013-11-06 23:42:00,
2013-11-06 18:53:00,57.0,57.0,-100.00,WNW,290,5.0,13.0,99,0.02,,,0.25,1.000000,,2013-11-06 23:53:00,
2013-11-06 19:02:00,57.0,57.0,-100.00,WNW,290,5.0,13.0,99,0.02,,,0.25,1.000000,,2013-11-07 00:02:00,
2013-11-06 19:42:00,56.0,56.0,-100.00,NW,304,3.0,12.0,99,0.00,,,0.25,0.000000,,2013-11-07 00:42:00,
2013-11-06 19:52:00,56.0,56.0,-100.00,NW,304,3.0,12.0,99,0.00,,,0.25,0.000000,,2013-11-07 00:52:00,
2013-11-06 20:02:00,56.0,56.0,-100.00,NW,304,3.0,12.0,99,0.00,,,0.25,0.000000,,2013-11-07 01:02:00,
2013-11-06 20:42:00,55.0,55.0,-100.00,WNW,300,3.0,11.0,99,0.01,,,0.26,0.000000,,2013-11-07 01:42:00,
2013-11-06 20:52:00,55.0,55.0,-100.00,WNW,300,3.0,11.0,99,0.01,,,0.26,0.000000,,2013-11-07 01:52:00,
2013-11-06 21:01:00,55.0,55.0,-100.00,WNW,300,3.0,11.0,99,0.01,,,0.26,0.000000,,2013-11-07 02:01:00,
2013-11-06 21:53:00,47.0,46.0,-100.00,NNW,341,5.0,15.0,96,0.03,,,0.29,0.000000,,2013-11-07 02:53:00,
2013-11-06 22:02:00,47.0,46.0,-100.00,NNW,341,5.0,15.0,96,0.03,,,0.29,0.000000,,2013-11-07 03:02:00,
2013-11-06 22:44:00,43.0,42.0,-100.00,North,349,3.0,14.0,97,0.04,,,0.33,0.000000,,2013-11-07 03:44:00,
2013-11-06 22:55:00,43.0,42.0,-100.00,North,349,3.0,14.0,97,0.04,,,0.33,0.000000,,2013-11-07 03:55:00,
2013-11-06 23:04:00,43.0,42.0,-100.00,North,349,3.0,14.0,97,0.04,,,0.33,0.000000,,2013-11-07 04:04:00,
2013-11-06 23:43:00,42.0,41.0,-100.00,NNE,23,4.0,13.0,98,0.03,,,0.36,0.000000,,2013-11-07 04:43:00,
2013-11-06 23:53:00,42.0,41.0,-100.00,NNE,23,4.0,13.0,98,0.03,,,0.36,0.000000,,2013-11-07 04:53:00,